Location: Antoign�
(47.0844°N, 0.1131°W)
Time: 21:27:46
(UTC+00:00)

Okean-O - Pass Details

Date: 03 March 2021
Orbit: 639 x 640 km, 98.2° (Epoch: 14 April)

Event Time Altitude Azimuth Distance (km) Brightness Sun altitude
Rises 18:21:56 0° 155° (SSE) 2,934 5.8 -6.4°
Reaches altitude 10° 18:24:09 10° 152° (SSE) 2,029 5.0 -6.8°
Maximum altitude 18:28:30 61° 72° (ENE) 733 2.7 -7.5°
Drops below altitude 10° 18:32:53 10° 353° (N) 2,044 5.3 -8.3°
Sets 18:35:07 0° 350° (N) 2,958 6.2 -8.7°
